USY78 CYQB-KATW

Flight info

Callsign USY78
Flight time 2h 7m
Altitude 38000
Route GOXEV2 OLAVO DCT KISUK Q848 SLLAP Q440 IDIOM
Aircraft A346/H-SDE2E3FGHIJ3J4J5M1RWXY/LB1D1

Departure

Time 2026-05-07 14:27
Airport Quebec Jean Lesage International Airport (CYQB)

Arrival

Time 2026-05-07 16:35
Airport Appleton International Airport (KATW)
Time Latitude Longitude Altitude Speed Heading
2026-05-07 14:15 46.79379 -71.38425 261 ft 0 kts 133°
2026-05-07 14:20 46.79380 -71.38425 261 ft 0 kts 133°
2026-05-07 14:20 46.79401 -71.38458 252 ft 0 kts 133°
2026-05-07 14:21 46.79416 -71.38481 255 ft 0 kts 133°
2026-05-07 14:21 46.79423 -71.38493 261 ft 0 kts 133°
2026-05-07 14:24 46.79423 -71.38492 261 ft 1 kts 133°
2026-05-07 14:24 46.79416 -71.38471 261 ft 6 kts 96°
2026-05-07 14:25 46.79468 -71.38389 261 ft 18 kts 38°
2026-05-07 14:25 46.79585 -71.38282 261 ft 21 kts 32°
2026-05-07 14:25 46.79692 -71.38142 261 ft 23 kts 44°
2026-05-07 14:25 46.79823 -71.38046 261 ft 22 kts 359°
2026-05-07 14:26 46.79943 -71.38064 261 ft 14 kts 329°
2026-05-07 14:26 46.79951 -71.38174 261 ft 14 kts 230°
2026-05-07 14:26 46.79821 -71.38365 261 ft 54 kts 224°
2026-05-07 14:26 46.79411 -71.38953 262 ft 111 kts 224°
2026-05-07 14:27 46.78732 -71.39928 262 ft 159 kts 224°
2026-05-07 14:27 46.77857 -71.41160 698 ft 166 kts 226°
2026-05-07 14:27 46.77020 -71.42352 1393 ft 166 kts 226°
2026-05-07 14:27 46.76195 -71.43543 2043 ft 166 kts 226°
2026-05-07 14:28 46.75370 -71.44733 2596 ft 167 kts 226°
2026-05-07 14:28 46.74540 -71.45926 3094 ft 168 kts 226°
2026-05-07 14:28 46.73695 -71.47141 3599 ft 174 kts 226°
2026-05-07 14:28 46.72794 -71.48437 3959 ft 190 kts 226°
2026-05-07 14:29 46.71811 -71.49850 4299 ft 206 kts 227°
2026-05-07 14:29 46.71208 -71.50957 4519 ft 217 kts 243°
2026-05-07 14:29 46.70867 -71.53175 4797 ft 237 kts 274°
2026-05-07 14:29 46.71443 -71.55512 5181 ft 258 kts 304°
2026-05-07 14:30 46.72579 -71.57588 5945 ft 263 kts 307°
2026-05-07 14:30 46.74102 -71.60368 7097 ft 265 kts 306°
2026-05-07 14:30 46.74880 -71.61799 7659 ft 268 kts 306°
2026-05-07 14:30 46.76045 -71.63957 8492 ft 272 kts 305°
2026-05-07 14:31 46.77224 -71.66151 9351 ft 276 kts 305°
2026-05-07 14:31 46.78468 -71.68471 10201 ft 280 kts 305°
2026-05-07 14:31 46.79686 -71.70746 10825 ft 291 kts 304°
2026-05-07 14:31 46.80969 -71.73156 11230 ft 308 kts 304°
2026-05-07 14:32 46.82305 -71.75669 11619 ft 326 kts 304°
2026-05-07 14:32 46.83755 -71.78397 11995 ft 344 kts 304°
2026-05-07 14:32 46.85242 -71.81192 12482 ft 356 kts 304°
2026-05-07 14:32 46.86782 -71.84081 13320 ft 360 kts 304°
2026-05-07 14:33 46.88345 -71.87013 14116 ft 363 kts 303°
2026-05-07 14:33 46.89913 -71.89960 14855 ft 366 kts 303°
2026-05-07 14:33 46.91483 -71.92920 15600 ft 370 kts 303°
2026-05-07 14:33 46.93065 -71.95906 16347 ft 373 kts 303°
2026-05-07 14:34 46.94664 -71.98929 17109 ft 376 kts 302°
2026-05-07 14:34 46.96297 -72.02022 17851 ft 380 kts 302°
2026-05-07 14:34 46.97917 -72.05094 18488 ft 384 kts 302°
2026-05-07 14:34 46.99541 -72.08177 19102 ft 387 kts 302°
2026-05-07 14:35 47.01170 -72.11376 19722 ft 388 kts 297°
2026-05-07 14:35 47.02209 -72.15038 20169 ft 384 kts 277°
2026-05-07 14:35 47.02353 -72.18910 20745 ft 379 kts 260°
2026-05-07 14:35 47.01674 -72.22623 21418 ft 375 kts 244°
2026-05-07 14:36 47.00408 -72.25978 22085 ft 377 kts 238°
2026-05-07 14:36 46.99058 -72.29330 22595 ft 383 kts 238°
2026-05-07 14:36 46.97682 -72.32738 22996 ft 391 kts 238°
2026-05-07 14:36 46.96280 -72.36224 23507 ft 394 kts 238°
2026-05-07 14:37 46.94890 -72.39682 24025 ft 396 kts 238°
2026-05-07 14:37 46.92047 -72.46766 24995 ft 402 kts 239°
2026-05-07 14:37 46.90614 -72.50336 25467 ft 405 kts 239°
2026-05-07 14:38 46.89189 -72.53883 25938 ft 408 kts 239°
2026-05-07 14:38 46.87725 -72.57525 26402 ft 411 kts 239°
2026-05-07 14:38 46.86288 -72.61099 26849 ft 414 kts 239°
2026-05-07 14:38 46.84819 -72.64743 27314 ft 417 kts 239°
2026-05-07 14:39 46.83340 -72.68408 27739 ft 420 kts 239°
2026-05-07 14:39 46.81843 -72.72114 28196 ft 423 kts 239°
2026-05-07 14:39 46.80346 -72.75818 28657 ft 425 kts 239°
2026-05-07 14:39 46.78837 -72.79544 29295 ft 423 kts 239°
2026-05-07 14:40 46.77331 -72.83257 29990 ft 420 kts 239°
2026-05-07 14:40 46.75852 -72.86900 30530 ft 418 kts 239°
2026-05-07 14:40 46.74359 -72.90572 30974 ft 419 kts 239°
2026-05-07 14:40 46.72864 -72.94246 31391 ft 420 kts 239°
2026-05-07 14:41 46.71367 -72.97917 31816 ft 421 kts 239°
2026-05-07 14:41 46.69863 -73.01603 32253 ft 421 kts 239°
2026-05-07 14:41 46.68357 -73.05287 32693 ft 421 kts 239°
2026-05-07 14:41 46.66849 -73.08972 33112 ft 422 kts 239°
2026-05-07 14:42 46.65332 -73.12673 33537 ft 423 kts 239°
2026-05-07 14:42 46.63586 -73.16928 33974 ft 423 kts 239°
2026-05-07 14:42 46.61978 -73.20841 34342 ft 423 kts 239°
2026-05-07 14:42 46.60458 -73.24534 34667 ft 423 kts 239°
2026-05-07 14:43 46.58903 -73.28309 34993 ft 423 kts 239°
2026-05-07 14:43 46.57383 -73.31992 35301 ft 423 kts 239°
2026-05-07 14:43 46.55836 -73.35736 35589 ft 422 kts 239°
2026-05-07 14:43 46.54337 -73.39360 35849 ft 422 kts 239°
2026-05-07 14:44 46.52818 -73.43023 36078 ft 423 kts 239°
2026-05-07 14:44 46.51281 -73.46730 36265 ft 424 kts 239°
2026-05-07 14:44 46.49750 -73.50414 36469 ft 426 kts 239°
2026-05-07 14:44 46.48206 -73.54125 36639 ft 427 kts 239°
2026-05-07 14:45 46.46660 -73.57834 36829 ft 428 kts 239°
2026-05-07 14:45 46.45128 -73.61506 36998 ft 429 kts 239°
2026-05-07 14:45 46.43578 -73.65216 37165 ft 430 kts 239°
2026-05-07 14:45 46.42016 -73.68951 37317 ft 431 kts 239°
2026-05-07 14:46 46.40458 -73.72670 37482 ft 432 kts 239°
2026-05-07 14:46 46.38887 -73.76414 37650 ft 433 kts 239°
2026-05-07 14:46 46.37319 -73.80147 37775 ft 434 kts 239°
2026-05-07 14:46 46.35741 -73.83900 37766 ft 434 kts 239°
2026-05-07 14:47 46.32572 -73.91419 37776 ft 435 kts 239°
2026-05-07 14:47 46.29428 -73.98859 37782 ft 434 kts 239°
2026-05-07 14:48 46.26240 -74.06381 37776 ft 434 kts 239°
2026-05-07 14:48 46.23074 -74.13834 37774 ft 433 kts 239°
2026-05-07 14:49 46.19898 -74.21289 37795 ft 433 kts 239°
2026-05-07 14:49 46.16727 -74.28714 37796 ft 432 kts 239°
2026-05-07 14:50 46.13562 -74.36104 37799 ft 431 kts 239°
2026-05-07 14:50 46.10374 -74.43528 37801 ft 431 kts 239°
2026-05-07 14:51 46.07201 -74.50900 37804 ft 431 kts 239°
2026-05-07 14:51 46.04040 -74.58226 37816 ft 431 kts 239°
2026-05-07 14:52 46.00856 -74.65583 37816 ft 431 kts 239°
2026-05-07 14:52 45.97660 -74.72952 37817 ft 431 kts 239°
2026-05-07 14:53 45.94480 -74.80267 37818 ft 431 kts 239°
2026-05-07 14:53 45.93967 -74.81447 37820 ft 431 kts 239°
2026-05-07 14:54 45.92305 -74.85257 37817 ft 431 kts 239°
2026-05-07 14:54 45.89191 -74.92614 37824 ft 431 kts 242°
2026-05-07 14:55 45.86379 -75.00278 37825 ft 430 kts 243°
2026-05-07 14:55 45.83581 -75.07954 37824 ft 431 kts 243°
2026-05-07 14:56 45.80804 -75.15562 37830 ft 431 kts 243°
2026-05-07 14:56 45.77979 -75.23287 37832 ft 431 kts 243°
2026-05-07 14:57 45.75086 -75.31181 37837 ft 431 kts 243°
2026-05-07 14:57 45.72241 -75.38921 37846 ft 430 kts 243°
2026-05-07 14:58 45.69422 -75.46568 37848 ft 430 kts 243°
2026-05-07 14:58 45.66600 -75.54203 37852 ft 430 kts 243°
2026-05-07 14:59 45.63796 -75.61765 37852 ft 430 kts 243°
2026-05-07 14:59 45.60945 -75.69436 37851 ft 430 kts 243°
2026-05-07 15:00 45.58292 -75.76554 37852 ft 430 kts 243°
2026-05-07 15:00 45.55424 -75.84229 37856 ft 430 kts 243°
2026-05-07 15:01 45.52563 -75.91864 37861 ft 430 kts 243°
2026-05-07 15:01 45.49732 -75.99401 37869 ft 430 kts 243°
2026-05-07 15:02 45.46884 -76.06963 37871 ft 430 kts 243°
2026-05-07 15:02 45.44038 -76.14492 37876 ft 429 kts 243°
2026-05-07 15:03 45.41276 -76.22112 37883 ft 430 kts 245°
2026-05-07 15:03 45.38990 -76.30013 37875 ft 429 kts 250°
2026-05-07 15:04 45.37087 -76.38185 37881 ft 429 kts 251°
2026-05-07 15:04 45.35192 -76.46305 37887 ft 429 kts 251°
2026-05-07 15:05 45.33314 -76.54325 37888 ft 429 kts 251°
2026-05-07 15:05 45.31423 -76.62385 37888 ft 429 kts 251°
2026-05-07 15:06 45.29516 -76.70496 37890 ft 429 kts 251°
2026-05-07 15:06 45.27614 -76.78556 37890 ft 429 kts 251°
2026-05-07 15:07 45.25692 -76.86660 37894 ft 429 kts 251°
2026-05-07 15:07 45.23769 -76.94724 37897 ft 429 kts 251°
2026-05-07 15:08 45.21856 -77.02716 37898 ft 429 kts 251°
2026-05-07 15:08 45.19919 -77.10788 37899 ft 429 kts 251°
2026-05-07 15:09 45.17965 -77.18906 37901 ft 429 kts 251°
2026-05-07 15:09 45.16032 -77.26910 37902 ft 429 kts 251°
2026-05-07 15:10 45.14055 -77.35067 37904 ft 429 kts 251°
2026-05-07 15:10 45.12098 -77.43114 37905 ft 429 kts 251°
2026-05-07 15:11 45.10149 -77.51101 37908 ft 429 kts 251°
2026-05-07 15:11 45.08176 -77.59155 37912 ft 429 kts 251°
2026-05-07 15:12 45.06207 -77.67166 37913 ft 430 kts 251°
2026-05-07 15:12 45.04209 -77.75266 37918 ft 430 kts 251°
2026-05-07 15:13 45.02226 -77.83278 37915 ft 430 kts 251°
2026-05-07 15:13 45.00233 -77.91298 37920 ft 430 kts 251°
2026-05-07 15:14 44.98231 -77.99329 37923 ft 430 kts 251°
2026-05-07 15:14 44.96237 -78.07303 37922 ft 430 kts 251°
2026-05-07 15:15 44.94222 -78.15326 37927 ft 430 kts 251°
2026-05-07 15:15 44.92221 -78.23275 37930 ft 430 kts 251°
2026-05-07 15:16 44.90519 -78.30009 37932 ft 430 kts 251°
2026-05-07 15:16 44.88159 -78.39319 37931 ft 429 kts 251°
2026-05-07 15:17 44.86460 -78.45998 37934 ft 429 kts 251°
2026-05-07 15:17 44.84431 -78.53953 37938 ft 429 kts 251°
2026-05-07 15:18 44.82380 -78.61963 37940 ft 429 kts 251°
2026-05-07 15:18 44.80341 -78.69906 37938 ft 430 kts 251°
2026-05-07 15:19 44.78285 -78.77874 37942 ft 430 kts 250°
2026-05-07 15:19 44.76192 -78.85230 37950 ft 430 kts 248°
2026-05-07 15:20 44.74035 -78.92502 37947 ft 430 kts 248°
2026-05-07 15:20 44.71709 -79.00326 37949 ft 430 kts 248°
2026-05-07 15:21 44.69383 -79.08128 37949 ft 430 kts 248°
2026-05-07 15:21 44.67067 -79.15872 37948 ft 430 kts 248°
2026-05-07 15:22 44.64729 -79.23665 37952 ft 430 kts 248°
2026-05-07 15:22 44.62397 -79.31416 37956 ft 430 kts 248°
2026-05-07 15:23 44.60039 -79.39229 37958 ft 429 kts 248°
2026-05-07 15:23 44.57704 -79.46943 37955 ft 429 kts 248°
2026-05-07 15:24 44.55346 -79.54707 37958 ft 429 kts 248°
2026-05-07 15:24 44.52988 -79.62451 37967 ft 428 kts 248°
2026-05-07 15:25 44.50642 -79.70130 37963 ft 428 kts 248°
2026-05-07 15:25 44.48281 -79.77834 37970 ft 428 kts 248°
2026-05-07 15:26 44.45892 -79.85606 37968 ft 428 kts 248°
2026-05-07 15:26 44.43543 -79.93228 37966 ft 428 kts 248°
2026-05-07 15:27 44.41148 -80.00972 37969 ft 428 kts 248°
2026-05-07 15:27 44.38764 -80.08657 37968 ft 428 kts 248°
2026-05-07 15:28 44.36393 -80.16282 37966 ft 428 kts 248°
2026-05-07 15:28 44.33992 -80.23977 37962 ft 428 kts 248°
2026-05-07 15:29 44.31602 -80.31616 37962 ft 427 kts 248°
2026-05-07 15:29 44.29172 -80.39362 37962 ft 427 kts 248°
2026-05-07 15:30 44.26794 -80.46917 37965 ft 427 kts 248°
2026-05-07 15:30 44.24373 -80.54590 37959 ft 427 kts 248°
2026-05-07 15:31 44.21956 -80.62223 37958 ft 427 kts 248°
2026-05-07 15:31 44.19526 -80.69878 37965 ft 427 kts 248°
2026-05-07 15:32 44.17076 -80.77575 37965 ft 427 kts 248°
2026-05-07 15:32 44.14635 -80.85219 38040 ft 430 kts 247°
2026-05-07 15:33 44.13312 -80.89350 38402 ft 427 kts 247°
2026-05-07 15:33 44.12086 -80.93177 38700 ft 425 kts 247°
2026-05-07 15:33 44.10895 -80.96885 38865 ft 425 kts 247°
2026-05-07 15:33 44.09653 -81.00751 39004 ft 425 kts 247°
2026-05-07 15:34 44.08438 -81.04525 39139 ft 426 kts 247°
2026-05-07 15:34 44.07215 -81.08317 39291 ft 426 kts 247°
2026-05-07 15:34 44.06002 -81.12073 39434 ft 426 kts 247°
2026-05-07 15:34 44.04798 -81.15798 39577 ft 426 kts 247°
2026-05-07 15:35 44.03563 -81.19613 39718 ft 426 kts 247°
2026-05-07 15:35 44.02337 -81.23394 39839 ft 426 kts 247°
2026-05-07 15:35 44.01122 -81.27136 39975 ft 426 kts 247°
2026-05-07 15:35 43.99883 -81.30945 39962 ft 426 kts 247°
2026-05-07 15:36 43.97424 -81.38491 39965 ft 426 kts 247°
2026-05-07 15:36 43.94936 -81.46106 39971 ft 425 kts 247°
2026-05-07 15:37 43.92496 -81.53552 39969 ft 425 kts 247°
2026-05-07 15:37 43.90029 -81.61061 39972 ft 425 kts 247°
2026-05-07 15:38 43.87567 -81.68533 39976 ft 424 kts 247°
2026-05-07 15:38 43.85064 -81.76110 39975 ft 424 kts 247°
2026-05-07 15:39 43.82588 -81.83584 39975 ft 424 kts 247°
2026-05-07 15:39 43.80104 -81.91067 39983 ft 424 kts 247°
2026-05-07 15:40 43.77640 -81.98459 39985 ft 424 kts 247°
2026-05-07 15:40 43.75280 -82.06004 39984 ft 423 kts 250°
2026-05-07 15:41 43.73407 -82.13770 39985 ft 422 kts 255°
2026-05-07 15:41 43.72058 -82.21780 39984 ft 422 kts 259°
2026-05-07 15:42 43.71242 -82.29801 39979 ft 422 kts 264°
2026-05-07 15:42 43.70672 -82.38021 39980 ft 422 kts 264°
2026-05-07 15:43 43.70103 -82.46164 39974 ft 422 kts 264°
2026-05-07 15:43 43.69527 -82.54344 39977 ft 422 kts 264°
2026-05-07 15:44 43.68949 -82.62495 39971 ft 422 kts 264°
2026-05-07 15:44 43.68368 -82.70629 39966 ft 422 kts 264°
2026-05-07 15:45 43.67776 -82.78784 39970 ft 422 kts 264°
2026-05-07 15:45 43.67090 -82.86941 39971 ft 422 kts 262°
2026-05-07 15:46 43.65879 -82.99010 39973 ft 423 kts 262°
2026-05-07 15:47 43.65066 -83.07159 39972 ft 423 kts 262°
2026-05-07 15:47 43.64252 -83.15310 39970 ft 423 kts 262°
2026-05-07 15:48 43.63443 -83.23372 39968 ft 423 kts 262°
2026-05-07 15:48 43.62620 -83.31526 39966 ft 423 kts 262°
2026-05-07 15:49 43.61981 -83.37824 39967 ft 423 kts 262°
2026-05-07 15:49 43.61155 -83.45900 39965 ft 423 kts 262°
2026-05-07 15:50 43.60320 -83.54018 39964 ft 423 kts 262°
2026-05-07 15:50 43.59477 -83.62159 39967 ft 423 kts 262°
2026-05-07 15:51 43.58620 -83.70363 39972 ft 423 kts 261°
2026-05-07 15:51 43.57768 -83.78474 39970 ft 423 kts 261°
2026-05-07 15:52 43.56903 -83.86647 39974 ft 424 kts 261°
2026-05-07 15:52 43.56039 -83.94746 39988 ft 424 kts 261°
2026-05-07 15:53 43.55169 -84.02856 39990 ft 424 kts 261°
2026-05-07 15:53 43.54297 -84.10921 39991 ft 424 kts 261°
2026-05-07 15:54 43.53419 -84.18991 39991 ft 425 kts 261°
2026-05-07 15:54 43.52526 -84.27144 39987 ft 425 kts 261°
2026-05-07 15:55 43.51629 -84.35284 39986 ft 425 kts 261°
2026-05-07 15:55 43.50733 -84.43358 39981 ft 426 kts 261°
2026-05-07 15:56 43.49831 -84.51440 39984 ft 426 kts 261°
2026-05-07 15:56 43.48915 -84.59595 39983 ft 426 kts 261°
2026-05-07 15:57 43.48003 -84.67671 39983 ft 426 kts 261°
2026-05-07 15:57 43.47080 -84.75772 39986 ft 426 kts 261°
2026-05-07 15:58 43.46365 -84.84015 39982 ft 427 kts 267°
2026-05-07 15:58 43.46542 -84.92267 39988 ft 429 kts 275°
2026-05-07 15:59 43.47685 -85.00666 39988 ft 432 kts 283°
2026-05-07 15:59 43.49821 -85.08865 39994 ft 435 kts 290°
2026-05-07 16:00 43.52350 -85.16691 39994 ft 435 kts 290°
2026-05-07 16:00 43.54879 -85.24472 39989 ft 435 kts 290°
2026-05-07 16:01 43.57350 -85.32113 39986 ft 436 kts 290°
2026-05-07 16:01 43.58602 -85.35993 39846 ft 437 kts 290°
2026-05-07 16:01 43.59833 -85.39815 39516 ft 435 kts 290°
2026-05-07 16:01 43.61058 -85.43622 39094 ft 432 kts 290°
2026-05-07 16:02 43.62281 -85.47429 38620 ft 430 kts 290°
2026-05-07 16:02 43.63505 -85.51247 38042 ft 429 kts 290°
2026-05-07 16:02 43.64717 -85.55036 37513 ft 427 kts 290°
2026-05-07 16:02 43.65916 -85.58786 37021 ft 425 kts 290°
2026-05-07 16:03 43.67121 -85.62558 36518 ft 423 kts 290°
2026-05-07 16:03 43.67920 -85.65068 36186 ft 421 kts 290°
2026-05-07 16:03 43.69503 -85.70045 35481 ft 421 kts 290°
2026-05-07 16:03 43.70652 -85.73751 34931 ft 420 kts 289°
2026-05-07 16:04 43.71365 -85.76316 34568 ft 419 kts 287°
2026-05-07 16:04 43.72301 -85.80135 34014 ft 419 kts 285°
2026-05-07 16:04 43.73115 -85.84050 33169 ft 422 kts 283°
2026-05-07 16:04 43.73890 -85.88035 32306 ft 427 kts 283°
2026-05-07 16:05 43.74668 -85.92080 31538 ft 430 kts 283°
2026-05-07 16:05 43.75433 -85.96071 30810 ft 432 kts 283°
2026-05-07 16:05 43.76220 -86.00183 30038 ft 434 kts 283°
2026-05-07 16:05 43.77002 -86.04280 29143 ft 436 kts 283°
2026-05-07 16:06 43.77804 -86.08486 28743 ft 428 kts 283°
2026-05-07 16:06 43.78623 -86.12790 28223 ft 427 kts 283°
2026-05-07 16:06 43.79523 -86.17538 27557 ft 423 kts 283°
2026-05-07 16:06 43.80353 -86.21916 26964 ft 419 kts 283°
2026-05-07 16:07 43.81117 -86.25965 26413 ft 416 kts 283°
2026-05-07 16:07 43.81848 -86.29844 25912 ft 413 kts 283°
2026-05-07 16:07 43.82577 -86.33722 25394 ft 410 kts 283°
2026-05-07 16:07 43.83335 -86.37763 24864 ft 408 kts 283°
2026-05-07 16:08 43.84104 -86.41868 24315 ft 405 kts 283°
2026-05-07 16:08 43.84844 -86.45828 23806 ft 403 kts 283°
2026-05-07 16:08 43.85535 -86.49536 23255 ft 401 kts 283°
2026-05-07 16:08 43.86246 -86.53355 22739 ft 398 kts 283°
2026-05-07 16:09 43.86929 -86.57029 22300 ft 393 kts 283°
2026-05-07 16:09 43.87616 -86.60735 21864 ft 388 kts 283°
2026-05-07 16:09 43.88290 -86.64380 21429 ft 385 kts 283°
2026-05-07 16:09 43.88959 -86.68002 20996 ft 381 kts 283°
2026-05-07 16:10 43.89617 -86.71574 20577 ft 377 kts 283°
2026-05-07 16:10 43.90271 -86.75130 20148 ft 374 kts 283°
2026-05-07 16:10 43.90913 -86.78626 19724 ft 371 kts 283°
2026-05-07 16:10 43.91556 -86.82138 19298 ft 369 kts 283°
2026-05-07 16:11 43.92185 -86.85578 18883 ft 366 kts 283°
2026-05-07 16:11 43.92847 -86.89208 18427 ft 364 kts 283°
2026-05-07 16:11 43.93480 -86.92679 17960 ft 362 kts 283°
2026-05-07 16:11 43.94110 -86.96145 17504 ft 360 kts 283°
2026-05-07 16:12 43.94715 -86.99477 17084 ft 356 kts 283°
2026-05-07 16:12 43.95323 -87.02836 16654 ft 354 kts 283°
2026-05-07 16:12 43.95926 -87.06168 16244 ft 351 kts 283°
2026-05-07 16:12 43.96525 -87.09488 15826 ft 349 kts 283°
2026-05-07 16:13 43.97157 -87.12994 15393 ft 346 kts 283°
2026-05-07 16:13 43.97754 -87.16314 14983 ft 344 kts 283°
2026-05-07 16:13 43.98332 -87.19536 14578 ft 341 kts 283°
2026-05-07 16:13 43.98906 -87.22741 14182 ft 339 kts 283°
2026-05-07 16:14 43.99474 -87.25913 13783 ft 337 kts 283°
2026-05-07 16:14 44.00039 -87.29078 13335 ft 334 kts 283°
2026-05-07 16:14 44.00601 -87.32224 12927 ft 331 kts 283°
2026-05-07 16:14 44.01157 -87.35345 12516 ft 328 kts 283°
2026-05-07 16:15 44.01706 -87.38432 12109 ft 325 kts 283°
2026-05-07 16:15 44.02253 -87.41514 11712 ft 323 kts 283°
2026-05-07 16:15 44.02790 -87.44541 11308 ft 320 kts 283°
2026-05-07 16:15 44.03321 -87.47549 10915 ft 318 kts 283°
2026-05-07 16:16 44.03848 -87.50533 10517 ft 316 kts 283°
2026-05-07 16:16 44.04369 -87.53491 10200 ft 310 kts 283°
2026-05-07 16:16 44.04870 -87.56337 10173 ft 294 kts 283°
2026-05-07 16:16 44.05362 -87.59132 10146 ft 279 kts 283°
2026-05-07 16:17 44.05819 -87.61735 10110 ft 264 kts 283°
2026-05-07 16:17 44.06243 -87.64158 10086 ft 251 kts 283°
2026-05-07 16:17 44.06654 -87.66506 10054 ft 241 kts 283°
2026-05-07 16:17 44.07069 -87.68879 9952 ft 239 kts 283°
2026-05-07 16:18 44.07460 -87.71127 9556 ft 241 kts 283°
2026-05-07 16:18 44.07854 -87.73388 9221 ft 240 kts 283°
2026-05-07 16:18 44.08250 -87.75665 8900 ft 239 kts 283°
2026-05-07 16:18 44.08647 -87.77950 8571 ft 239 kts 283°
2026-05-07 16:19 44.09039 -87.80203 8263 ft 238 kts 283°
2026-05-07 16:19 44.09424 -87.82424 7964 ft 236 kts 283°
2026-05-07 16:19 44.09817 -87.84692 7664 ft 235 kts 283°
2026-05-07 16:19 44.10193 -87.86866 7374 ft 235 kts 283°
2026-05-07 16:20 44.10584 -87.89135 7072 ft 234 kts 283°
2026-05-07 16:20 44.10967 -87.91352 6765 ft 234 kts 283°
2026-05-07 16:20 44.11341 -87.93522 6493 ft 234 kts 283°
2026-05-07 16:20 44.11721 -87.95731 6183 ft 233 kts 283°
2026-05-07 16:21 44.12098 -87.97932 5890 ft 233 kts 283°
2026-05-07 16:21 44.12353 -87.99414 5676 ft 232 kts 283°
2026-05-07 16:21 44.12685 -88.01351 5438 ft 232 kts 283°
2026-05-07 16:21 44.13197 -88.04338 5052 ft 232 kts 283°
2026-05-07 16:22 44.13630 -88.06875 4709 ft 231 kts 283°
2026-05-07 16:22 44.14122 -88.09750 4328 ft 230 kts 283°
2026-05-07 16:22 44.14555 -88.12284 3997 ft 230 kts 283°
2026-05-07 16:22 44.14913 -88.14382 3712 ft 229 kts 283°
2026-05-07 16:23 44.15309 -88.16714 3418 ft 228 kts 283°
2026-05-07 16:23 44.15687 -88.18938 3344 ft 218 kts 283°
2026-05-07 16:23 44.16028 -88.20943 3323 ft 204 kts 283°
2026-05-07 16:23 44.16309 -88.23192 3304 ft 190 kts 277°
2026-05-07 16:24 44.16577 -88.25235 3165 ft 177 kts 285°
2026-05-07 16:24 44.16964 -88.26820 3001 ft 171 kts 291°
2026-05-07 16:24 44.17651 -88.28863 2801 ft 170 kts 295°
2026-05-07 16:24 44.18348 -88.30812 2846 ft 169 kts 295°
2026-05-07 16:25 44.18940 -88.32480 2841 ft 154 kts 295°
2026-05-07 16:25 44.19420 -88.33850 2874 ft 153 kts 294°
2026-05-07 16:25 44.19956 -88.35386 2886 ft 153 kts 294°
2026-05-07 16:25 44.20484 -88.36899 2908 ft 153 kts 294°
2026-05-07 16:26 44.20957 -88.38254 2909 ft 153 kts 294°
2026-05-07 16:26 44.21483 -88.39760 2682 ft 152 kts 294°
2026-05-07 16:26 44.22025 -88.41308 2435 ft 151 kts 294°
2026-05-07 16:26 44.22527 -88.42743 2220 ft 150 kts 294°
2026-05-07 16:27 44.22994 -88.44077 2023 ft 150 kts 294°
2026-05-07 16:27 44.23529 -88.45602 1761 ft 149 kts 293°
2026-05-07 16:27 44.24151 -88.47381 1432 ft 149 kts 294°
2026-05-07 16:27 44.24640 -88.48770 1211 ft 148 kts 293°
2026-05-07 16:28 44.25121 -88.50141 1013 ft 147 kts 293°
2026-05-07 16:28 44.25652 -88.51690 1488 ft 165 kts 292°
2026-05-07 16:28 44.26193 -88.53399 2411 ft 179 kts 292°
2026-05-07 16:28 44.26843 -88.55420 2723 ft 207 kts 297°
2026-05-07 16:29 44.28206 -88.56967 2577 ft 211 kts 345°
2026-05-07 16:29 44.30154 -88.56646 2689 ft 219 kts 17°
2026-05-07 16:29 44.31824 -88.55555 2710 ft 221 kts 24°
2026-05-07 16:29 44.33231 -88.54445 2694 ft 221 kts 26°
2026-05-07 16:30 44.34571 -88.53350 2699 ft 221 kts 26°
2026-05-07 16:30 44.35979 -88.52193 2697 ft 221 kts 26°
2026-05-07 16:30 44.37313 -88.51094 2738 ft 208 kts 26°
2026-05-07 16:30 44.38769 -88.49880 2687 ft 187 kts 26°
2026-05-07 16:31 44.39777 -88.48774 2623 ft 172 kts 56°
2026-05-07 16:31 44.39993 -88.47087 2663 ft 174 kts 107°
2026-05-07 16:31 44.39373 -88.45551 2732 ft 181 kts 130°
2026-05-07 16:31 44.38541 -88.44251 2701 ft 181 kts 146°
2026-05-07 16:32 44.37636 -88.43702 2692 ft 171 kts 182°
2026-05-07 16:32 44.36528 -88.44109 2706 ft 162 kts 213°
2026-05-07 16:32 44.35552 -88.44922 2714 ft 161 kts 216°
2026-05-07 16:32 44.34578 -88.45722 2662 ft 163 kts 215°
2026-05-07 16:33 44.33599 -88.46497 2356 ft 160 kts 214°
2026-05-07 16:33 44.32583 -88.47259 2078 ft 153 kts 213°
2026-05-07 16:33 44.31645 -88.47936 1895 ft 152 kts 213°
2026-05-07 16:33 44.30705 -88.48608 1714 ft 150 kts 213°
2026-05-07 16:34 44.29770 -88.49265 1495 ft 149 kts 210°
2026-05-07 16:34 44.28835 -88.49914 1322 ft 149 kts 210°
2026-05-07 16:34 44.27906 -88.50546 1118 ft 148 kts 210°
2026-05-07 16:34 44.26989 -88.51179 947 ft 147 kts 210°
2026-05-07 16:35 44.26171 -88.51754 907 ft 96 kts 205°
2026-05-07 16:35 44.25783 -88.52012 908 ft 43 kts 206°
2026-05-07 16:35 44.25578 -88.52153 902 ft 15 kts 206°
2026-05-07 16:35 44.25564 -88.52163 902 ft 3 kts 206°
2026-05-07 16:36 44.25532 -88.52180 901 ft 7 kts 180°
2026-05-07 16:36 44.25478 -88.52115 902 ft 12 kts 118°
2026-05-07 16:36 44.25521 -88.52019 901 ft 17 kts 27°
2026-05-07 16:36 44.25648 -88.51936 905 ft 21 kts 24°
2026-05-07 16:37 44.25779 -88.51848 906 ft 17 kts 28°
2026-05-07 16:37 44.25841 -88.51743 905 ft 16 kts 73°
2026-05-07 16:37 44.25881 -88.51546 897 ft 22 kts 75°
2026-05-07 16:37 44.25898 -88.51422 897 ft 5 kts 84°
2026-05-07 16:38 44.25922 -88.51376 897 ft 7 kts 31°
2026-05-07 16:38 44.25949 -88.51369 897 ft 0 kts